Voltar ao catálogo

STARLINK-36437

AtivoComunicaçõesVLEO
NORAD 67465·PAYLOAD·🇺🇸 United States

Lançado Jan 14, 2026 de Cape Canaveral Space Force Station

Loading…

Próximas Passagens (próximas 24 horas)

TLE

AtualizadoSource: CelesTrak SupGP

Época: Sep 14, 2026, 22:44 UTC

1 67465C 26008W   26257.94770833  .00004398  00000+0  15927-3 0  2574
2 67465  42.9994 216.1550 0001100 260.0015 308.9906 15.27581779    11

Acompanhe STARLINK-36437 em tempo real com AllMySat

Download on the App Store